Погода в Братолюбовке

Погода в Братолюбовке : погода сейчас, прогноз погоды и архив. Всё, что Вы хотите узнать о погоде в Братолюбовке!

Поиск расширенной информации на нашем сайте:

Другие новости

Новости СМИ2

Главная страница сайта

Новости сайта

02.10.2013

Напоминаем, что на нашем новом сайте вы можете получить высокодетализированные прогнозы погоды по пунктам России, СНГ и мира (включающие важные для авиации метеовеличины, такие как направление и скорость ветра, видимость, явления погоды, количество и форма облачности, нижняя и верхняя граница облачности), а также ознакомиться с разнообразными материалами по авиационной метеорологии и подборкой полезных ссылок на эту тему.

Сайт Метеоцентр.Азия посвящён разработке технологий оптимизации авиаметеорологического обслуживания, включая проектирование и перспективное создание нескольких автоматизированных авиаметеорологических систем:
- система выпуска высокодетальных прогностических карт явлений погоды для нижнего воздушного пространства по России и ближнему зарубежью;
- система верификации прогнозов TAF (выпускаемых синоптиками официальных АМСГ РФ и ближнего зарубежья) и AUTOTAF (выпускаемых сайтом Метеоцентр.Азия) - выявление ошибок, онлайн-сопоставление с фактической погодой METAR, автоматическое внесение коррективов в прогнозы при резком отклонении фактической погоды от прогноза, подсчёт оправдываемости прогнозов по элементам и в целом;
- система обработки, анализа и отображения авиаметеорологической информации для применения провайдерами метеорологической информации.

Рекомендуем: Перфоратор оптом купить оптом перфоратор lad-rostov.ru.

Погода в Братолюбовке - сегодня

Время (UTC), дата Ветер
(°,м/с) 
Видим.   Явления Облачность Т
(°С)
Тd
(°С)
f(%) Тe
(°С)
Pmin
(гПа)
dP
(гПа)
Po
(мм)
O2
(г/м3)
Тmin Tmax R s Состояние
почвы
06 20.06.17 050 (СВ) 20000 м    8/6 600 м кучево-дожд., средняя 
[Cb cap|Ac trans]
+22 +14.6 63 +30  1007.7  -1.3  736  271           
09 20.06.17 тихо ()   20000 м    6/3 600 м верхняя 
[Cu med, cong|Ci fib]
+22.8 +14.1 58 +30  1007.3  -0.3  736  271           
12 20.06.17 тихо ()   20000 м    6/1 600 м кучево-дожд., средняя, верхняя 
[Cb calv|Ac cast|Ci fib]
+17.6 +15.7 89 +28  1007.8  736  275    +24       
15 20.06.17 тихо ()   50000 м    ясно 
+14.9 +13.8 93 +22  1008.1  0.1  736  278           
18 20.06.17 тихо ()   50000 м    1/0 верхняя 
[Ci fib]
+12.9 +12.9 100 +19  1008.6  0.3  736  281           
21 20.06.17 тихо ()   20000 м    3/0 верхняя 
[Ci fib]
+12 +11.8 99 +16  1008.8  0.1  736  282           
00 21.06.17 210 (ЮЗ) 20000 м    1/0 верхняя 
[Ci fib]
+18.7 +14.2 75 +28  1007.9  -0.3  736  275  +10.4        влажная 
03 21.06.17 240 (ЮЗ) 20000 м    1/0 верхняя 
[Ci sp]
+24.7 +13.9 51 +32  1006  -1.2  735  269           
06 21.06.17 250 (З) 20000 м    1/0 верхняя 
[Ci sp]
+27.8 +14.4 44 +36  1003.8  -2.2  733  265           
09 21.06.17 310 (СЗ) 20000 м    1/0 верхняя 
[Ci sp]
+27.8 +10.9 35 +31  1002.5  -0.9  733  266           
12 21.06.17 260 (З) 20000 м    3/0 верхняя 
[Ci sp]
+18.4 +13.9 75 +26  1003.5  0.2  733  274    +29       
15 21.06.17 260 (З) 50000 м    1/0 средняя 
[Ac lent]
+18.2 +10.7 62 +22  1003.6  0.1  733  275           
18 21.06.17 250 (З) 50000 м    3/0 верхняя 
[Ci fib]
+15.9 +10.3 69 +19  1003.8  733  277           
21 21.06.17 250 (З) 35000 м    3/0 средняя 
[Ac cast]
+16.7 +11.5 71 +22  1003.8  733  276           
00 22.06.17 280 (З) 30000 м    ясно 
+23.3 +14.5 58 +32  1003.7  733  269  +13.5        влажная 
03 22.06.17 300 (СЗ) 27000 м    4/0 верхняя 
[Ci fib]
+28.6 +16.1 47 +40  1002.7  -0.5  733  264           
06 22.06.17 310 (СЗ) 25000 м    9/1 1000 м верхняя 
[Cu hum|Ci sp]
+29.1 +16.5 47 +41  1002.4  -0.3  733  263           
09 22.06.17 360 (С) 22000 м    4/0 верхняя 
[Ci fib]
+28.8 +15.9 46 +40  1002.2  -0.2  732  264           
12 22.06.17 тихо ()   25000 м    8/0 средняя, верхняя 
[Ac lent|Ci sp]
+20.4 +17.2 82 +34  1003.5  0.6  733  271    +29.7       
15 22.06.17 250 (З) 40000 м    3/0 верхняя 
[Ci fib]
+18.1 +15.7 86 +31  1004.2  0.5  733  274           
18 22.06.17 240 (ЮЗ) 50000 м    3/0 верхняя 
[Ci fib]
+16.2 +14.8 91 +27  1004.4  733  276           
21 22.06.17 270 (З) 30000 м    6/0 верхняя 
[Ci sp]
+17.4 +15.1 86 +28  1004.5  0.2  733  275           
00 23.06.17 290 (З) 45000 м    1/0 верхняя 
[Ci fib]
+25.3 +16.6 59 +38  1003.5  -0.2  733  267  +15.9        влажная 
03 23.06.17 320 (СЗ) 35000 м    10/0 верхняя 
[Cs]
+29.5 +16.9 47 +42  1002.6  -0.5  733  263           
06 23.06.17 310 (СЗ) 35000 м    3/0 верхняя 
[Ci fib]
+31.2 +13.7 34 +38  1000.8  -1.6  732  262           
Время (UTC), дата Ветер
(°,м/с) 
Видим.   Явления Облачность Т
(°С)
Тd
(°С)
f(%) Тe
(°С)
Pmin
(гПа)
dP
(гПа)
Po
(мм)
O2
(г/м3)
Тmin Tmax R s Состояние
почвы

Для получения пояснительной информации подведите курсор к названию столбца.

ПОГОДА в Братолюбовке - архив

Всё, что Вы хотите узнать о погоде в Братолюбовке - удобно и подробно!

Выберите нужную дату (начиная с 1 января 2015* года) и нажмите кнопку "Найти".
Будут отображены архивные сводки погоды по пункту Братолюбовка, начиная с указанной даты.


Отображать данные в формате CSV (для использования в таблицах Excel)


Внимание! Наш архив погоды предназначен исключительно для личного некоммерческого использования в познавательных целях. Если Вам необходимы официальные справки о состоянии погоды (для производственных, юридических, коммерческих и т.п. целей), обращайтесь в органы Росгидромета.

*Примечание: данная дата относится к архиву по метеостанциям СССР (Россия, СНГ, Балтия).
Архив по метеостанциям Зарубежной Европы и Азии (кроме Китая) хранится 10 дней, по другим регионам земного шара (Китай, Африка, Америка, Австралия, Океания) - 1 день.

Братолюбовка - район местоположения метеостанции


Название, широта, долгота, высота метеостанции:
Братолюбовка 50.8°ш. 129.3°д. 227 м над ур. моря [Российская Федерация]

Дополнительная информация

В oтличие oт бoльшинства пoгoдных сайтoв мы публикуем пoдрoбную метеoинфoрмацию в детальнoм прoфессиoнальнoм фoрмате.

Характеристики температуры и влажнoсти вoздуха измеряются на высoте 2 м в тени вдали oт зданий и деревьев.
Скoрoсть ветра измеряется на высoте 10 м (на урoвне рoста челoвека скoрoсть ветра ниже в 1.5-2 раза). Если метеoстанция нахoдится в гoрoде или в лесу, тo скoрoсть ветра занижена на 2-4 м/с пo сравнению с oткрытым местoм. Скoрoсть ветра над акватoриями крупных рек и oзёр, а также на вершинах хoлмoв на 2-5 м/с выше, чем в oбычных услoвиях.
Атмoсфернoе давление в разных тoчках местнoсти мoжет значительнo oтличаться oт давления на метеoстанции, в зависимoсти oт услoвий рельефа (при пoдъёме на 10 м давление пoнижается примернo на 1 мм рт.ст.).